Regional Weather Roundup
Issued by NWS

Home | Current Version | Previous Version | Text Only | Print | Product List | Glossary Off
Versions: 1 2 3 4 5 6 7 8 9 10 11 12 13 14 15 16 17 18 19 20 21 22 23 24 25 26 27 28 29 30 31 32 33 34 35 36 37 38 39 40 41 42 43 44 45 46 47 48 49 50

000
ASUS43 KLMK 021310
RWRKY
KENTUCKY REGIONAL WEATHER ROUNDUP
NATIONAL WEATHER SERVICE LOUISVILLE KY
900 AM EDT TUE SEP 02 2014

NOTE "FAIR" INDICATES FEW OR NO CLOUDS BELOW 12,000 FEET
WITH NO SIGNIFICANT WEATHER AND/OR OBSTRUCTIONS TO VISIBILITY.

KYZ001>023-026-027-061>063-070>075-021400-
WESTERN AND SOUTH CENTRAL KENTUCKY

CITY           SKY/WX    TMP DP  RH WIND       PRES   REMARKS
PADUCAH        MOSUNNY   79  73  82 VRB7      29.96S
HENDERSON      CLOUDY    70  66  88 SE7       29.98R
OWENSBORO      MOSUNNY   70  70 100 SE6       30.00F
HOPKINSVILLE   PTSUNNY   78  74  88 S9        30.00F
BOWLING GREEN  CLOUDY    77  69  76 SW9       30.03R
GLASGOW        MOSUNNY   76  68  77 SW7       30.04R
$$

KYZ024-025-028>034-038-045-046-053-021400-
NORTH CENTRAL KENTUCKY

CITY           SKY/WX    TMP DP  RH WIND       PRES   REMARKS
LOUISVILLE/SDF RAIN      71  67  87 CALM      30.04R FOG
LOUISVILLE/LOU LGT RAIN  70  67  90 NW3       30.03R
FORT KNOX      RAIN      70  70 100 SW3       30.06R VSB 1/2
$$

KYZ035>037-039>044-047>052-055>060-089>105-021400-
NORTHEAST KENTUCKY

CITY           SKY/WX    TMP DP  RH WIND       PRES   REMARKS
LEXINGTON      CLOUDY    77  69  76 S13G24    30.01S
COVINGTON      CLOUDY    67  64  90 SE7       29.98F
FRANKFORT      LGT RAIN  73  66  78 W6        30.01R
$$

KYZ054-064>069-076>088-106>120-021400-
SOUTHEAST KENTUCKY

CITY           SKY/WX    TMP DP  RH WIND       PRES   REMARKS
JACKSON        MOSUNNY   75  68  78 VRB3      30.07F
LONDON         MOSUNNY   76  68  76 S8        30.08F
SOMERSET       CLOUDY    73  70  88 S3        30.08S
MIDDLESBORO    SUNNY     73  70  92 CALM      30.11S
MONTICELLO     MOSUNNY   77  71  81 SW6       30.08S
$$




USA.gov is the U.S. government's official web portal to all federal, state and local government web resources and services.